Tracking 19720 objects as of 26-Jun-2019
HD Live streaming from Space Station
objects crossing your sky now

INTELSAT 2-F2 DEB *

Track INTELSAT 2-F2 DEB * now!


NORAD ID: 5987
Int'l Code: 1967-001S
Perigee: 475.4 km
Apogee: 28,662.9 km
Inclination: 26.3 °
Period: 502.6 minutes
Semi major axis: 20940 km
RCS: 0.3047 m2 (medium)
Launch date: January 11, 1967
Source: United States (US)
Launch site: AIR FORCE EASTERN TEST RANGE (AFETR)

Note: This is SATELLITE DEBRIS
aabbcc
Your satellite tracking list
Your tracking list is empty




NASA's NSSDC Master Catalog

Two Line Element Set (TLE):
1  5987U 67001S   19176.49128744 -.00000056 +00000-0 -23600-3 0  9993
2  5987 026.2674 259.2850 6730499 087.9873 341.6170 02.86505961305450
Source of the keplerian elements: AFSPC